Change the Weather History Date:

Thursday, October 25, 2012

  Actual Average Record
Temperature  
Mean Temperature 46 °F 54 °F  
Max Temperature 58 °F 66 °F 91 °F (1927)
Min Temperature 34 °F 43 °F 24 °F (1975)
Degree Days  
Heating Degree Days 19 11  
Month to date heating degree days 191 193  
Since 1 July heating degree days 226 245  
Cooling Degree Days 0 0  
Month to date cooling degree days 14 32  
Year to date cooling degree days 2051 1644  
Moisture  
Dew Point 38 °F    
Average Humidity 69    
Maximum Humidity 89    
Minimum Humidity 48    
Precipitation  
Precipitation 0.23 in 0.06 in 2.17 in (1987)
Month to date precipitation 1.19 1.96  
Year to date precipitation 17.58 29.00  
Sea Level Pressure  
Sea Level Pressure 30.01 in    
Wind  
Wind Speed 20 mph (NNW)    
Max Wind Speed 32 mph    
Max Gust Speed 40 mph    
Visibility 9 miles    
Events Rain    
T = Trace of Precipitation, MM = Missing Value Source: NWS Daily Summary

Daily Weather History Graph

Daily Weather History Graph

Search for Another Location

Airport or City:

Trip Planner

Search our weather history database for the weather conditions in past years. The results will help you decide how hot, cold, wet, or windy it might be!

Date:

Astronomy

Oct. 25, 2012 Rise Set
Actual Time 7:50 AM CDT 6:37 PM CDT
Civil Twilight 7:23 AM CDT 7:05 PM CDT
Nautical Twilight 6:52 AM CDT 7:36 PM CDT
Astronomical Twilight 6:21 AM CDT 8:07 PM CDT
Moon 4:22 PM CDT (10/25) 3:50 AM CDT (10/25)
Length of Visible Light 11h 41m
Length of Day
10h 47m
Waxing Gibbous, 84% of the Moon is Illuminated
Oct 25
Waxing Gibbous
Oct 29
Full
Nov 6
Last Quarter
Nov 13
New
Nov 20
First Quarter

Hourly Weather History & Observations

Time (CDT) Temp. Windchill Dew Point Humidity Pressure Visibility Wind Dir Wind Speed Gust Speed Precip Events Conditions
12:53 AM 60.1 °F - 55.0 °F 83% 29.64 in 8.0 mi NW 13.8 mph 21.9 mph 0.00 in   Overcast
1:02 AM 57.2 °F - 53.6 °F 88% 29.67 in 5.0 mi NW 20.7 mph 34.5 mph N/A Rain Heavy Rain
1:17 AM 55.4 °F - 51.8 °F 88% 29.68 in 3.0 mi NNW 20.7 mph 28.8 mph N/A Rain Rain
1:53 AM 52.0 °F - 48.9 °F 89% 29.67 in 9.0 mi NNW 19.6 mph - 0.11 in Rain Light Rain
2:53 AM 48.9 °F - 46.0 °F 90% 29.70 in 8.0 mi North 21.9 mph - 0.08 in Rain Rain
3:03 AM 48.2 °F - 46.4 °F 93% 29.72 in 10.0 mi North 20.7 mph - 0.00 in   Overcast
3:11 AM 48.2 °F - 46.4 °F 93% 29.73 in 10.0 mi NNW 23.0 mph 31.1 mph 0.00 in   Overcast
3:53 AM 46.0 °F 36.7 °F 43.0 °F 89% 29.76 in 7.0 mi North 29.9 mph 35.7 mph 0.00 in   Overcast
4:39 AM 44.6 °F 34.7 °F 42.8 °F 93% 29.81 in 5.0 mi NNW 29.9 mph 34.5 mph N/A   Overcast
4:53 AM 45.0 °F 36.4 °F 41.0 °F 86% 29.81 in 6.0 mi NNW 23.0 mph 32.2 mph N/A   Overcast
5:01 AM 44.6 °F 35.3 °F 39.2 °F 81% 29.83 in 7.0 mi NNW 26.5 mph 34.5 mph 0.01 in   Overcast
5:49 AM 42.8 °F 34.5 °F 39.2 °F 87% 29.86 in 7.0 mi NNW 18.4 mph 29.9 mph 0.02 in   Overcast
5:53 AM 42.1 °F 32.8 °F 39.0 °F 89% 29.86 in 5.0 mi NNW 21.9 mph 29.9 mph 0.02 in Rain Rain
6:48 AM 42.8 °F 34.3 °F 37.4 °F 81% 29.90 in 10.0 mi NNW 19.6 mph - 0.02 in   Overcast
6:53 AM 43.0 °F 34.0 °F 37.9 °F 82% 29.91 in 10.0 mi NNW 21.9 mph 27.6 mph 0.02 in   Overcast
7:53 AM 41.0 °F 31.1 °F 36.0 °F 82% 29.96 in 10.0 mi NNW 23.0 mph 28.8 mph N/A   Overcast
8:53 AM 41.0 °F 31.6 °F 37.0 °F 86% 30.01 in 10.0 mi NNW 20.7 mph 34.5 mph N/A   Overcast
9:53 AM 41.0 °F 30.7 °F 34.0 °F 76% 30.06 in 10.0 mi NNW 25.3 mph 32.2 mph N/A   Overcast
10:53 AM 42.1 °F 31.7 °F 34.0 °F 73% 30.11 in 10.0 mi NNW 27.6 mph 32.2 mph N/A   Overcast
11:53 AM 44.1 °F 35.2 °F 35.1 °F 71% 30.13 in 10.0 mi North 23.0 mph 33.4 mph N/A   Overcast
12:53 PM 48.0 °F - 35.1 °F 61% 30.13 in 10.0 mi NNW 27.6 mph 32.2 mph N/A   Mostly Cloudy
1:00 PM 48.2 °F - 35.6 °F 62% 30.13 in 10.0 mi North 24.2 mph 32.2 mph N/A   Scattered Clouds
1:53 PM 48.9 °F - 33.1 °F 54% 30.14 in 10.0 mi North 23.0 mph 32.2 mph N/A   Mostly Cloudy
2:53 PM 51.8 °F - 32.0 °F 47% 30.14 in 10.0 mi North 25.3 mph 29.9 mph N/A   Scattered Clouds
3:53 PM 51.1 °F - 33.1 °F 50% 30.17 in 10.0 mi North 24.2 mph - N/A   Partly Cloudy
4:53 PM 51.1 °F - 32.0 °F 48% 30.19 in 10.0 mi North 19.6 mph - N/A   Partly Cloudy
5:53 PM 48.9 °F - 30.0 °F 48% 30.22 in 10.0 mi North 17.3 mph - N/A   Clear
6:53 PM 45.0 °F 39.3 °F 32.0 °F 60% 30.27 in 10.0 mi North 11.5 mph - N/A   Clear
7:53 PM 44.1 °F 37.1 °F 30.0 °F 58% 30.29 in 10.0 mi North 15.0 mph - N/A   Clear
8:53 PM 41.0 °F 33.1 °F 30.0 °F 65% 30.32 in 10.0 mi NNE 15.0 mph - N/A   Clear
9:53 PM 37.9 °F 30.5 °F 28.9 °F 70% 30.34 in 10.0 mi NNE 11.5 mph - N/A   Clear
10:53 PM 36.0 °F 26.7 °F 27.0 °F 70% 30.36 in 10.0 mi North 15.0 mph 25.3 mph N/A   Clear
11:42 PM 35.6 °F 26.2 °F 26.6 °F 70% 30.36 in 10.0 mi North 15.0 mph - N/A   Mostly Cloudy
11:53 PM 35.6 °F 27.5 °F 26.6 °F 70% 30.36 in 10.0 mi North 11.5 mph - N/A   Overcast